| time (UTC) | temp C | wind direction | speed KPH | gust KPH | rain 1hr cm | rain 24hr cm | rain mn cm | humidity % | barometer mb |
| 20260504050615 | 16 | 225 | 3.2 | 3.2 | 0.00 | 0.00 | 0.00 | 90 | 1011.1 |
| 20260504045553 | 17 | 113 | 0.0 | 0.0 | 0.00 | 0.00 | 0.00 | 90 | 1010.9 |
| 20260504044614 | 17 | 135 | 3.2 | 3.2 | 0.00 | 0.00 | 0.00 | 90 | 1010.9 |
| 20260504042614 | 17 | 113 | 0.0 | 0.0 | 0.00 | 0.00 | 0.00 | 89 | 1010.8 |
| 20260504041552 | 17 | 135 | 0.0 | 0.0 | 0.00 | 0.00 | 0.00 | 89 | 1010.9 |
| 20260504040613 | 17 | 135 | 0.0 | 0.0 | 0.00 | 0.00 | 0.00 | 89 | 1011.0 |
| 20260504035553 | 18 | 113 | 0.0 | 0.0 | 0.00 | 0.00 | 0.00 | 89 | 1011.1 |
| 20260504034613 | 18 | 135 | 0.0 | 0.0 | 0.00 | 0.00 | 0.00 | 88 | 1011.2 |
| 20260504033556 | 18 | 135 | 0.0 | 0.0 | 0.00 | 0.00 | 0.00 | 88 | 1011.1 |
| 20260504032613 | 18 | 113 | 0.0 | 0.0 | 0.00 | 0.00 | 0.00 | 88 | 1011.1 |
| 20260504031554 | 18 | 135 | 0.0 | 0.0 | 0.00 | 0.00 | 0.00 | 88 | 1011.2 |
| 20260504025553 | 18 | 90 | 3.2 | 3.2 | 0.00 | 0.00 | 0.00 | 89 | 1011.3 |
| 20260504024613 | 18 | 113 | 1.6 | 3.2 | 0.00 | 0.00 | 0.00 | 89 | 1011.3 |
| 20260504023552 | 18 | 113 | 0.0 | 0.0 | 0.00 | 0.00 | 0.00 | 88 | 1011.4 |
| 20260504022613 | 18 | 90 | 0.0 | 0.0 | 0.00 | 0.00 | 0.00 | 88 | 1011.4 |
| 20260504020613 | 18 | 315 | 0.0 | 0.0 | 0.00 | 0.00 | 0.00 | 88 | 1011.5 |
| 20260504015553 | 18 | 293 | 0.0 | 0.0 | 0.00 | 0.00 | 0.00 | 88 | 1011.6 |
| 20260504014613 | 19 | 315 | 0.0 | 0.0 | 0.00 | 0.00 | 0.00 | 88 | 1011.5 |
| 20260504012613 | 18 | 293 | 0.0 | 0.0 | 0.00 | 0.00 | 0.00 | 88 | 1011.5 |
| 20260504011553 | 18 | 293 | 0.0 | 0.0 | 0.00 | 0.00 | 0.00 | 88 | 1011.7 |
| 20260504005552 | 19 | 293 | 1.6 | 3.2 | 0.00 | 0.00 | 0.00 | 88 | 1011.8 |
| 20260504004614 | 19 | 315 | 3.2 | 3.2 | 0.00 | 0.00 | 0.00 | 88 | 1011.9 |
| 20260504003553 | 19 | 293 | 3.2 | 3.2 | 0.00 | 0.00 | 0.00 | 88 | 1012.0 |
| 20260504001552 | 19 | 315 | 0.0 | 0.0 | 0.00 | 0.00 | 0.00 | 88 | 1012.0 |
| 20260504000616 | 19 | 338 | 1.6 | 3.2 | 0.00 | 0.00 | 0.00 | 87 | 1012.0 |
| 20260503235555 | 19 | 270 | 0.0 | 0.0 | 0.00 | 0.00 | 0.00 | 87 | 1012.0 |
| 20260503234615 | 19 | 315 | 3.2 | 3.2 | 0.00 | 0.00 | 0.00 | 87 | 1012.2 |
| 20260503233553 | 19 | 270 | 3.2 | 3.2 | 0.00 | 0.00 | 0.00 | 87 | 1012.2 |
| 20260503232614 | 19 | 293 | 0.0 | 3.2 | 0.00 | 0.00 | 0.00 | 87 | 1012.2 |
| 20260503231553 | 18 | 315 | 1.6 | 3.2 | 0.00 | 0.00 | 0.00 | 87 | 1012.2 |
| 20260503230614 | 18 | 293 | 1.6 | 3.2 | 0.00 | 0.00 | 0.00 | 88 | 1012.2 |
| 20260503225552 | 19 | 203 | 0.0 | 0.0 | 0.00 | 0.00 | 0.00 | 88 | 1012.2 |
| 20260503224613 | 18 | 203 | 3.2 | 6.4 | 0.00 | 0.00 | 0.00 | 87 | 1012.1 |
| 20260503223553 | 18 | 293 | 3.2 | 6.4 | 0.00 | 0.00 | 0.00 | 88 | 1012.1 |
| 20260503222614 | 18 | 248 | 3.2 | 3.2 | 0.00 | 0.00 | 0.00 | 88 | 1012.0 |
| 20260503221553 | 18 | 248 | 3.2 | 8.0 | 0.00 | 0.00 | 0.00 | 88 | 1012.2 |
| 20260503220614 | 18 | 248 | 3.2 | 6.4 | 0.00 | 0.00 | 0.00 | 88 | 1012.1 |
| 20260503215552 | 18 | 225 | 3.2 | 3.2 | 0.00 | 0.00 | 0.00 | 88 | 1012.2 |
| 20260503214614 | 18 | 225 | 3.2 | 6.4 | 0.00 | 0.00 | 0.00 | 87 | 1012.2 |
| 20260503213552 | 18 | 315 | 0.0 | 0.0 | 0.00 | 0.00 | 0.00 | 87 | 1012.1 |
| 20260503212614 | 18 | 0 | 0.0 | 0.0 | 0.00 | 0.00 | 0.00 | 87 | 1012.2 |
| 20260503210613 | 19 | 113 | 3.2 | 3.2 | 0.00 | 0.00 | 0.00 | 87 | 1012.1 |
| 20260503205553 | 19 | 68 | 1.6 | 3.2 | 0.00 | 0.00 | 0.00 | 87 | 1012.0 |
| 20260503204613 | 19 | 135 | 0.0 | 3.2 | 0.00 | 0.00 | 0.00 | 86 | 1011.9 |
| 20260503203553 | 19 | 135 | 3.2 | 6.4 | 0.00 | 0.00 | 0.00 | 86 | 1011.7 |
| 20260503202613 | 19 | 45 | 1.6 | 3.2 | 0.00 | 0.00 | 0.00 | 86 | 1011.6 |
| 20260503201553 | 18 | 248 | 3.2 | 3.2 | 0.00 | 0.00 | 0.00 | 86 | 1011.5 |
| 20260503200615 | 18 | 225 | 3.2 | 6.4 | 0.00 | 0.00 | 0.00 | 87 | 1011.2 |
| 20260503195552 | 18 | 225 | 0.0 | 3.2 | 0.00 | 0.00 | 0.00 | 87 | 1011.0 |
| 20260503194613 | 18 | 293 | 4.8 | 9.7 | 0.00 | 0.00 | 0.00 | 87 | 1010.9 |
| 20260503193552 | 18 | 68 | 6.4 | 9.7 | 0.00 | 0.00 | 0.00 | 87 | 1010.7 |
| 20260503192613 | 18 | 270 | 4.8 | 9.7 | 0.00 | 0.00 | 0.00 | 87 | 1010.5 |
| 20260503191553 | 18 | 225 | 8.0 | 14.5 | 0.00 | 0.00 | 0.00 | 88 | 1010.5 |
| 20260503190614 | 18 | 225 | 8.0 | 12.9 | 0.00 | 0.00 | 0.00 | 88 | 1010.4 |
| 20260503185552 | 18 | 248 | 9.7 | 14.5 | 0.00 | 0.00 | 0.00 | 87 | 1010.2 |
| 20260503184613 | 19 | 270 | 9.7 | 17.7 | 0.00 | 0.00 | 0.00 | 87 | 1010.1 |
| 20260503182613 | 19 | 225 | 8.0 | 12.9 | 0.00 | 0.00 | 0.00 | 86 | 1010.0 |
| 20260503181552 | 20 | 248 | 9.7 | 17.7 | 0.00 | 0.00 | 0.00 | 85 | 1009.9 |
| 20260503175552 | 20 | 315 | 4.8 | 9.7 | 0.00 | 0.00 | 0.00 | 84 | 1009.8 |
| 20260503174616 | 20 | 0 | 8.0 | 22.5 | 0.00 | 0.00 | 0.00 | 84 | 1009.7 |
| 20260503173554 | 20 | 68 | 6.4 | 11.3 | 0.00 | 0.00 | 0.00 | 84 | 1009.7 |
| 20260503172614 | 20 | 338 | 8.0 | 14.5 | 0.00 | 0.00 | 0.00 | 81 | 1009.7 |
| 20260503171552 | 21 | 338 | 8.0 | 12.9 | 0.00 | 0.00 | 0.00 | 80 | 1009.8 |
| 20260503170614 | 21 | 180 | 8.0 | 12.9 | 0.00 | 0.00 | 0.00 | 81 | 1009.9 |
| 20260503150613 | 20 | 315 | 11.3 | 17.7 | 0.00 | 0.00 | 0.00 | 82 | 1011.0 |
| 20260503130614 | 21 | 338 | 8.0 | 11.3 | 0.00 | 0.00 | 0.00 | 74 | 1012.3 |
| 20260503110614 | 21 | 248 | 3.2 | 3.2 | 0.00 | 0.00 | 0.00 | 72 | 1013.9 |
| 20260503081552 | 18 | 315 | 3.2 | 6.4 | 0.00 | 0.00 | 0.00 | 89 | 1014.9 |
| 20260503072614 | 18 | 293 | 6.4 | 9.7 | 0.00 | 0.00 | 0.00 | 84 | 1015.0 |
| 20260503071554 | 19 | 293 | 4.8 | 8.0 | 0.00 | 0.00 | 0.00 | 82 | 1014.7 |
| 20260503070615 | 18 | 203 | 1.6 | 3.2 | 0.00 | 0.00 | 0.00 | 80 | 1014.7 |